Regional Weather Roundup
Issued by NWS Pendleton, OR

Home | Current Version | Previous Version | Text Only | Print | Product List | Glossary On
Versions: 1 2 3 4 5 6 7 8 9 10 11 12 13 14 15 16 17 18 19 20 21 22 23 24 25 26 27 28 29 30 31 32 33 34 35 36 37 38 39 40 41 42 43 44 45 46 47 48 49 50
057
ASUS46 KPDT 271510
RWRPDT
PENDLETON REGIONAL WEATHER ROUNDUP
NATIONAL WEATHER SERVICE PENDLETON OREGON
800 AM PDT SAT AUG 27 2016

NOTE: FAIR INDICATES FEW OR NO CLOUDS BELOW 12,000 FEET WITH NO
SIGNIFICANT WEATHER AND/OR OBSTRUCTIONS TO VISIBILITY.

# INDICATES UNOFFICIAL STATION AND DATA

WAZ520-271610-
EAST SLOPES OF WASHINGTON CASCADES

CITY            SKY/WX      TMP DP  RH  WIND    PRES   REMARKS
#CLE ELUM HS    N/A         68  38  33  NW2     29.75S
#CLE ELUM 2NW   N/A         69  37  31  SW1     N/A
#GLENWOOD       N/A         52  48  86  CALM    29.78S
#MANASTASH CYN  N/A         59  45  60  CALM    29.81F
#NELSON 3SW     N/A         64  43  46  CALM    29.85F
#NILE           N/A         56  47  72  CALM    29.01S
#RONALD 2NW     N/A         69  N/A N/A W1      29.72F
#TEANAWAY 4NE   N/A         58  47  67  NW1     N/A
#TROUT LAKE 1NE N/A         68  46  45  W3      29.78S
$$

WAZ521-271610-
SIMCOE HIGHLANDS

CITY            SKY/WX      TMP DP  RH  WIND    PRES   REMARKS
#CENTERVILLE 1SWN/A         69  47  45  W12     29.73R
#GOLDENDALE 1NE N/A         67  32  27  SW1     N/A
#GOLDENDALE 4W  N/A         72  51  48  CALM    29.88S
#GOODNOE HILLS  N/A         73  50  44  W16     29.74S
#LYLE 6NE       N/A         67  49  52  S7      29.74R
$$

WAZ026-271610-
KITTITAS VALLEY

CITY            SKY/WX      TMP DP  RH  WIND    PRES   REMARKS
ELLENSBURG AP   PTCLDY      66  45  47  NW7     29.78S
#ELLENSBURG CWU N/A         63  46  54  CALM    29.64F
#ELLENSBURG 3NE N/A         65  47  52  CALM    29.79S
#ELLENSBURG     N/A         63  53  70  S1      N/A
#ELLENSBURG 1E  N/A         56  N/A N/A CALM    N/A
#KITTITAS 4N    N/A         66  43  43  CALM    29.74S
#KITTITAS 3S    N/A         52  49  89  CALM    29.70S
#THORP 6N       N/A         69  40  35  N12     29.68F
$$

WAZ027-271610-
YAKIMA VALLEY

CITY            SKY/WX      TMP DP  RH  WIND    PRES   REMARKS
YAKIMA AIRPORT  PTCLDY      62  48  60  CALM    29.77S
YAKIMA-VAGABOND N/A         65  44  46  N1      29.75S
#DONALD 2NE     N/A         76  27  16  S1      28.61S
#GRANDVIEW      N/A         60  49  67  CALM    29.73S
#MABTON         N/A         59  53  80  CALM    29.75R
#NACHES 2SW     N/A         67  51  56  W1      29.79S
#TERRACE HTS    N/A         59  50  72  CALM    29.67S
#TOPPENISH      N/A         60  52  75  CALM    29.64R
#WEST VALLEY    N/A         62  51  67  CALM    29.69F
#WHITE SWAN 5E  N/A         59  50  72  CALM    29.72S
#WILEY CITY 3W  N/A         66  44  45  CALM    29.74S
$$

WAZ028-271610-
LOWER COLUMBIA BASIN...WASHINGTON

CITY            SKY/WX      TMP DP  RH  WIND    PRES   REMARKS
HANFORD         MOCLDY      71  40  32  S2      29.73S
PASCO           PTCLDY      73  47  40  SW6     29.74S
PROSSER AWOS    N/A         64  54  70  CALM    29.78S
RICHLAND AWOS   PTCLDY      75  47  37  S10     29.73S
#BENTON CITY    N/A         69  46  44  SW1     29.62
#CONNELL 5N     N/A         64  42  45  CALM    29.71R
#CONNELL 5NW    N/A         65  47  52  S2      29.66S
#ELTOPIA 6NW    N/A         64  50  60  CALM    28.73S
#KAHLOTUS       N/A         69  42  37  SW7     29.70R
#KENNEWICK 3S   N/A         71  49  46  N9      29.70S
#PATERSON       N/A         62  50  65  CALM    29.73S
#SAGEMOOR 2W    N/A         67  48  50  CALM    29.56S
#TOUCHET 2S     N/A         75  45  34  SW6     29.71S
#WEST PASCO     N/A         72  52  49  SW2     29.70S
$$

WAZ029-271610-
FOOTHILLS OF THE BLUES...WASHINGTON

CITY            SKY/WX      TMP DP  RH  WIND    PRES   REMARKS
WALLA WALLA AP  CLOUDY      77  41  28  S15     29.80S
#CLYDE 6NW      N/A         71  42  35  SE7     29.71S
#DAYTON SCHOOL  N/A         65  41  41  VRB1    29.81F
#LOWDEN 2SE     N/A         64  49  58  CALM    29.74R
#PLEASANT VIEW 1N/A         72  41  33  SE12    29.72F
#PRESCOTT       N/A         64  50  60  CALM    29.74S
#WHITMAN COLLEGEN/A         74  46  37  S1      29.78S
#WAITSBURG 8N   N/A         73  21  14  S15     29.77S
#WALLA WALLA U  N/A         74  49  41  CALM    29.74R
#WHITMAN MISSIONN/A         75  48  38  S5      29.75F
$$

WAZ030-271610-
BLUE MOUNTAINS...WASHINGTON

CITY            SKY/WX      TMP DP  RH  WIND    PRES   REMARKS
#DIXIE 5SE      N/A         73  37  27  SE2     29.81S
$$

ORZ009-041-WAZ024-271610-
COLUMBIA RIVER GORGE

CITY            SKY/WX      TMP DP  RH  WIND    PRES   REMARKS
HOOD RIVER AP   SUNNY       72  46  39  NW14    29.84S
THE DALLES AP   SUNNY       74  47  38  CALM    29.80S
#ARLINGTON AIRPON/A         74  48  40  W9      29.76R
#LYLE           N/A         74  49  41  NW3     29.81R
#MARYHILL 2W    N/A         N/A N/A N/A CALM    N/A
#MOSIER 1S      N/A         69  34  27  NW8     29.82S
#MURDOCK        N/A         75  49  40  NW8     29.76R
#RUFUS DOT      N/A         77  47  35  W16     N/A
#SMITHVILLE     N/A         75  49  40  N15     29.82R

$$

ORZ510-271610-
NORTH CENTRAL OREGON

CITY            SKY/WX      TMP DP  RH  WIND    PRES   REMARKS
#ANTELOPE       N/A         56  39  53  CALM    29.68S
#COW CYN RST AREN/A         64  N/A N/A SW6     N/A
#DUFUR 9E       N/A         72  43  35  W6      29.79S
#GRASS VALLEY 1SN/A         67  43  42  S7      29.85R
#KENT DOT       N/A         64  40  41  N9      N/A
#MAUPIN SCHOOL  N/A         62  45  54  CALM    29.89S
#SHANIKO 5WSW   N/A         62  37  39  N13     N/A
#TYGH VALLEY 2NEN/A         61  44  53  CALM    29.80R
#WAPANITIA AIRPON/A         72  44  37  W7      29.79R
#WASCO DOT      N/A         69  49  49  SW7     N/A
#WASCO 5NE      N/A         71  47  42  CALM    29.76R
$$

ORZ511-271610-
CENTRAL OREGON

CITY            SKY/WX      TMP DP  RH  WIND    PRES   REMARKS
BEND AIRPORT    N/A         N/A N/A N/A MISG    N/A
MADRAS AIRPORT  SUNNY       64  41  43  S6      29.95F
PRINEVILLE AP   SUNNY       57  32  38  E3      30.00R
REDMOND AIRPORT SUNNY       61  31  32  E3      29.98S
#ASHWOOD SCHOOL N/A         54  34  47  CALM    29.91S
#BEND 1SW       N/A         57  38  49  SW2     N/A
#BEND-AWBREY    N/A         58  40  51  S3      29.83R
#CULVER         N/A         66  42  42  S5      29.77R
#CULVER 8W      N/A         66  34  30  E2      29.95S
#LAKE BILLY CHINN/A         66  N/A N/A CALM    30.00S
#MADRAS 4S      N/A         65  11  12  CALM    30.02R
#POWELL BUTTE 3EN/A         50  33  52  S2      N/A
#POWELL BUTTE   N/A         68  43  40  SE1     29.87S
#PRINEVILLE 3N  N/A         54  41  61  N1      29.95S
#WARM SPRINGS   N/A         59  41  51  CALM    29.90R

$$


ORZ509-271610-
EAST SLOPES OF OREGON CASCADES

CITY            SKY/WX      TMP DP  RH  WIND    PRES   REMARKS
SISTERS AWOS    N/A         55  37  51  CALM    29.96R
#BLUE BOX PASS  N/A         58  N/A N/A CALM    N/A
#CAMP SHERMAN   N/A         56  42  59  CALM    29.94R
#LA PINE 4NW    N/A         46  34  63  CALM    29.94S
#LAVA BUTTE DOT N/A         45  36  70  CALM    N/A
#SISTERS AIRPOR N/A         56  44  64  CALM    30.17S
#SISTERS ODOT   N/A         50  N/A N/A CALM    N/A
#SISTERS 3N     N/A         53  38  57  CALM    29.90S
#SUNRIVER       N/A         49  38  66  S1      29.92S
#TUMALO 3W      N/A         69  39  33  CALM    29.69R
#WANOGA BUTTE D N/A         62  30  30  W2      N/A

$$

ORZ044-271610-
LOWER COLUMBIA BASIN...OREGON

CITY            SKY/WX      TMP DP  RH  WIND    PRES   REMARKS
HERMISTON       PTCLDY      67  45  45  S3      29.78R
#BOARDMAN SCHOOLN/A         65  48  54  SW3     29.77R
#ECHO 8SW       N/A         77  44  31  SW15    29.78S
#I-84 EX 198 DOTN/A         74  49  41  NE10    N/A
#UMATILLA       N/A         60  46  60  CALM    29.68S
$$

ORZ507-271610-
NORTHERN FOOTHILLS OF THE BLUES

CITY            SKY/WX      TMP DP  RH  WIND    PRES   REMARKS
PENDLETON AIRPT PTCLDY      69  39  33  S7      29.82S
#ADAMS 3WNW     N/A         66  42  42  CALM    29.76F
#ATHENA         N/A         74  43  33  CALM    29.77F
#CAYUSE         N/A         68  42  39  E3      29.74S
#HELIX SCHOOL   N/A         65  41  41  N10     29.76S
#HELIX 3N       N/A         67  41  39  S8      29.81S
#HOLDMAN 5SE    N/A         70  42  36  CALM    29.82R
#HOLDMAN 6E     N/A         68  41  37  NW3     29.56S
#M-F GROVE ELEM N/A         79  39  24  S2      29.78S
#M-FREEWATER 5SEN/A         68  48  49  CALM    29.82S
#PENDLETON DNTN N/A         59  41  51  CALM    29.83S
#PDT AQUATIC CTRN/A         67  42  40  CALM    29.84S
#PDT SUNRIDGE   N/A         71  43  36  CALM    29.82S
#PENDLETON 7NW  N/A         70  47  44  SW1     32.43S
#PILOT ROCK 1S  N/A         73  39  29  S7      29.85S
#PILOT ROCK     N/A         70  43  38  W6      29.84S
#TUTUILLA       N/A         62  44  52  CALM    29.79F
#UMAPINE 2E     N/A         74  48  40  CALM    29.75S
#WESTON SCHOOL  N/A         74  37  26  NW6     29.70S

$$

ORZ508-271610-
SOUTHERN FOOTHILLS OF THE BLUES

CITY            SKY/WX      TMP DP  RH  WIND    PRES   REMARKS
LEXINGTON       SUNNY       77  39  25  SW16    29.88R
#AJAX           N/A         70  36  29  SE9     27.65R
#CONDON SCHOOL  N/A         66  39  37  SW7     29.88S
#CONDON 5W      N/A         66  38  36  SW13    29.91R
#FOSSIL SCHOOL  N/A         61  39  44  CALM    29.89S
#HEPPNER EOC    N/A         74  41  30  SW3     29.71R
#HEPPNER 4NE    N/A         71  40  32  SW5     29.76S
#LEXINGTON 2SE  N/A         78  41  27  SW12    29.82R
#MIKKALO        N/A         75  39  27  SW7     29.96S
#OLEX 4N        N/A         77  43  30  SW12    29.80R
#RUGGS 5NE      N/A         71  40  32  S6      30.07S
#RUGGS 2SW      N/A         71  39  31  SW8     29.78S

$$

ORZ502-503-271610-
BLUE MOUNTAINS

CITY            SKY/WX      TMP DP  RH  WIND    PRES   REMARKS
MEACHAM         MOCLDY      48  34  58  CALM    29.96R
#BATTLE MTN DOT N/A         49  33  54  S6      N/A
#CUTSFORTH PARK N/A         45  40  82  CALM    29.76S
#GREENHORN 9SW  N/A         37  29  72  CALM    26.22R
#HARDMAN 10S    N/A         63  36  36  CALM    29.90R
#HEPPNER 15SE   N/A         63  40  43  W3      29.89R
#LADD CYN SMT   N/A         53  39  59  SE3     N/A
#LADD CREEK ODOTN/A         50  38  63  SW2     N/A
#LONG CREEK HS  N/A         55  39  55  CALM    29.98S
#N POWDER DOT   N/A         44  42  93  W2      N/A
#PIKES PEAK     N/A         69  41  36  SW29    27.99S
#TOLLGATE       N/A         61  42  50  S2      29.87R
#TROY SCHOOL    N/A         60  44  55  CALM    29.67S
#UKIAH          N/A         41  35  79  CALM    29.85S
#WESTON 4E      N/A         69  41  36  S7      29.71S
$$

ORZ505-271610-
JOHN DAY BASIN

CITY            SKY/WX      TMP DP  RH  WIND    PRES   REMARKS
JOHN DAY        SUNNY       60  32  35  E9      30.01S
#DAYVILLE SCHOOLN/A         54  35  48  CALM    29.96R
#MITCHELL       N/A         63  43  48  CALM    30.12S
#MITCHELL 8NW   N/A         70  36  29  SW5     29.97R
#MONUMENT HS    N/A         52  37  56  CALM    29.88S
#MT. VERNON 5SE N/A         63  36  36  N1      29.97R
#SPRAY SCHOOL   N/A         59  N/A N/A CALM    N/A
$$

ORZ506-271610-
OCHOCO AND JOHN DAY HIGHLANDS

CITY            SKY/WX      TMP DP  RH  WIND    PRES   REMARKS
#BUCK CREEK DOT N/A         63  33  32  W3      N/A
#HORSE RIDGE DO N/A         39  19  44  CALM    N/A
#KEYES SMT DOT  N/A         62  35  36  SW29    N/A
#PAULINA SCHOOL N/A         45  27  49  CALM    N/A
#PINE MTN OBS   N/A         58  34  40  W1      N/A
#PRAIRIE CITY   N/A         44  36  73  CALM    30.16R
#SENECA         N/A         38  N/A N/A CALM    N/A
#SENECA 9NW     N/A         37  30  75  CALM    29.90F
$$

ORZ049-271610-
GRANDE RONDE VALLEY

CITY            SKY/WX      TMP DP  RH  WIND    PRES   REMARKS
LA GRANDE       MOCLDY      54  32  43  CALM    29.94S
#COVE           N/A         55  45  69  CALM    29.97S
#COVE SCHOOL    N/A         57  45  64  CALM    29.96S
#COVE 6NW       N/A         48  39  71  CALM    29.83R
#ELGIN 3N       N/A         52  39  61  CALM    29.92S
#ELGIN 1E       N/A         47  37  68  CALM    N/A
#IMBLER SCHOOL  N/A         50  40  68  CALM    29.91S
#ISLAND CITY 4N N/A         59  51  75  CALM    29.92R
#LADD CYN DOT   N/A         54  37  52  W2      N/A
#LA GRANDE ELEM N/A         58  39  49  CALM    29.96R
#UNION 1S       N/A         57  41  55  CALM    29.74S
$$

ORZ050-271610-
WALLOWA COUNTY

CITY            SKY/WX      TMP DP  RH  WIND    PRES   REMARKS
JOSEPH AIRPORT  MOCLDY      59  39  47  CALM    29.97R
#IMNAHA SCHOOL  N/A         57  41  55  N3      30.20S
#IMNAHA 10S     N/A         61  38  42  S2      29.93S
#JOSEPH 3W      N/A         65  45  48  CALM    29.84R
#LOSTINE        N/A         52  43  71  CALM    29.65S
#LOSTINE 3SE    N/A         50  40  68  SE1     29.95S
#MT HOWARD 8000 N/A         52  31  44  CALM    30.20S
#PROMISE 1S     N/A         65  39  38  NE2     29.85F
#WALLOWA SCHOOL N/A         48  40  74  CALM    29.93R



$$



USA.gov is the U.S. government's official web portal to all federal, state and local government web resources and services.